Location: Halfweg
(53.1000°N, 6.6000°E)
Time: 10:51:52
(UTC+00:00)

GRACE-FO 1 - Pass Details

Date: 15 May 2026
Orbit: 442 x 460 km, 89.0° (Epoch: 7 June)

Event Time Altitude Azimuth Distance (km) Brightness Sun altitude
Exits shadow 21:35:57 21° 184° (S) 1,082 5.8 -13.8°
Maximum altitude 21:38:10 81° 270° (W) 475 4.5 -13.9°
Drops below altitude 10° 21:41:41 10° 358° (N) 1,623 8.3 -14.2°
Sets 21:43:46 0° 360° (N) 2,502 9.4 -14.3°
